Location: Caltech
(34.1382°N, 118.1253°W)
Time: 20:20:15
(UTC-07:00)

Cosmos 1975 - Visible Passes

Search period start: 03 July 2015 00:00
Search period end: 13 July 2015 00:00
Orbit: 548 x 568 km, 82.5° (Epoch: 02 July)

Date Brightness Start Highest point End Pass type
(mag) Time Alt. Az. Time Alt. Az. Time Alt. Az.
03 Jul 3.9 03:05:45 37° ESE 03:06:04 38° E 03:09:55 10° NNE visible
03 Jul 5.0 04:41:39 11° W 04:42:56 12° WNW 04:44:35 10° NW visible
04 Jul 3.6 03:04:21 46° E 03:04:21 46° E 03:08:19 10° NNE visible
04 Jul 5.1 04:40:30 10° W 04:41:20 10° WNW 04:41:53 10° WNW visible
05 Jul 3.4 03:02:57 54° ENE 03:02:57 54° ENE 03:06:42 10° NNE visible
06 Jul 3.4 03:01:32 58° NE 03:01:32 58° NE 03:05:03 10° NNE visible
07 Jul 3.4 03:00:05 56° NNE 03:00:05 56° NNE 03:03:23 10° N visible
08 Jul 3.6 02:58:37 49° N 02:58:37 49° N 03:01:42 10° N visible
09 Jul 3.9 02:57:09 42° NNW 02:57:09 42° NNW 02:59:59 10° N visible
10 Jul 4.2 02:55:39 35° NNW 02:55:39 35° NNW 02:58:15 10° N visible
11 Jul 4.4 02:54:08 30° NNW 02:54:08 30° NNW 02:56:30 10° N visible
12 Jul 4.7 02:52:37 25° NNW 02:52:37 25° NNW 02:54:42 10° N visible
